Date String (YYYY-MM-DD hh:mm:ss) UTC,Instrument flags,absolute air pressure of the measurement (hPa),sample flow rate (lpm),inlet stack bypass flow (lpm),air temperature of the measurement (°C),ambient temperature measured by the external sensor (°C),aerosol sample conditioner tube jacket temperature (°C),OPC LED temperature (°C),internal box temperature (°C),relative humidity of the measurement (%),span deviation,mass concentration of particles derived from Lorenz-Mie calculation of OPC scattering (μg/m³),mass concentration of particles derived from Lorenz-Mie calculation of OPC scattering (μg/m³),mass concentration of particles derived from Lorenz-Mie calculation of OPC scattering (μg/m³)
DateTimeUTC,F1_M11,P_M11,Q1_M11,Q2_M11,T1_M11,T2_M11,T3_M11,T4_M11,T5_M11,U1_M11,ZSPAN_M11,X0_M11,X2_M11,X1_M11
2024-06-03 08:00:00,SystemResetWarning,0825.5,5.01,000.00,031.0,030.3,000.0,039.4,032.7,015.9,0000.0,0018.00,0005.13,0003.53
2024-06-03 08:01:00,SystemResetWarning,0825.5,4.99,000.00,031.0,030.3,000.0,039.4,032.7,016.0,0000.0,0017.12,0005.14,0003.54
2024-06-03 08:02:00,SystemResetWarning,0825.4,4.99,000.00,031.0,030.3,000.0,039.4,032.7,016.3,0000.0,0017.02,0005.19,0003.56
2024-06-03 08:03:00,SystemResetWarning,0825.4,5.01,000.00,031.0,030.3,000.0,039.4,032.7,016.2,0000.0,0019.08,0005.25,0003.57
2024-06-03 08:04:00,SystemResetWarning,0825.3,5.01,000.00,031.0,030.3,000.0,039.4,032.7,016.0,0000.0,0019.92,0005.29,0003.60
2024-06-03 08:05:00,SystemResetWarning,0825.3,5.01,000.00,031.0,030.3,000.0,039.4,032.7,015.9,0000.0,0019.28,0005.31,0003.61
2024-06-03 08:06:00,SystemResetWarning,0825.3,4.99,000.00,031.0,030.3,000.0,039.4,032.7,016.0,0000.0,0019.22,0005.28,0003.63
2024-06-03 08:07:00,SystemResetWarning,0825.3,4.99,000.00,031.0,030.3,000.0,039.4,032.7,016.1,0000.0,0020.65,0005.30,0003.65
2024-06-03 08:08:00,SystemResetWarning,0825.3,5.00,000.00,031.0,030.3,000.0,039.4,032.7,016.1,0000.0,0021.77,0005.30,0003.66
2024-06-03 08:09:00,SystemResetWarning,0825.3,5.01,000.00,031.0,030.3,000.0,039.4,032.7,016.0,0000.0,0020.94,0005.29,0003.66
2024-06-03 08:10:00,SystemResetWarning,0825.4,5.00,000.00,031.0,030.3,000.0,039.4,032.7,016.0,0000.0,0020.90,0005.32,0003.68
2024-06-03 08:11:00,SystemResetWarning,0825.4,5.01,000.00,031.0,030.3,000.0,039.4,032.7,016.0,0000.0,0021.03,0005.39,0003.70
2024-06-03 08:12:00,SystemResetWarning,0825.4,5.00,000.00,031.1,030.3,000.0,039.4,032.7,016.1,0000.0,0021.58,0005.42,0003.71
2024-06-03 08:13:00,SystemResetWarning,0825.4,5.00,000.00,031.1,030.3,000.0,039.4,032.7,016.1,0000.0,0021.20,0005.41,0003.72
2024-06-03 08:14:00,SystemResetWarning,0825.4,5.00,000.00,031.0,030.3,000.0,039.4,032.7,016.1,0000.0,0019.78,0005.45,0003.72
2024-06-03 08:15:00,SystemResetWarning,0825.4,5.01,000.00,031.0,030.3,000.0,039.4,032.7,016.1,0000.0,0019.84,0005.44,0003.72
2024-06-03 08:16:00,SystemResetWarning,0825.4,5.00,000.00,031.1,030.3,000.0,039.4,032.7,016.0,0000.0,0021.59,0005.43,0003.72
2024-06-03 08:17:00,SystemResetWarning,0825.3,4.99,000.00,031.1,030.3,000.0,039.4,032.8,015.7,0000.0,0021.92,0005.42,0003.73
2024-06-03 08:18:00,SystemResetWarning,0825.3,5.00,000.00,031.1,030.3,000.0,039.4,032.8,015.6,0000.0,0021.65,0005.42,0003.72
2024-06-03 08:19:00,SystemResetWarning,0825.2,5.00,000.00,031.1,030.3,000.0,039.4,032.8,015.6,0000.0,0020.38,0005.41,0003.71
2024-06-03 08:20:00,SystemResetWarning,0825.2,4.99,000.00,031.1,030.3,000.0,039.4,032.8,015.5,0000.0,0021.58,0005.38,0003.71
2024-06-03 08:21:00,SystemResetWarning,0825.2,5.00,000.00,031.1,030.3,000.0,039.4,032.8,015.6,0000.0,0021.70,0005.31,0003.70
2024-06-03 08:22:00,SystemResetWarning,0825.2,5.00,000.00,031.1,030.3,000.0,039.4,032.8,015.5,0000.0,0022.59,0005.29,0003.69
2024-06-03 08:23:00,SystemResetWarning,0825.1,5.00,000.00,031.1,030.4,000.0,039.4,032.8,015.4,0000.0,0021.69,0005.22,0003.68
2024-06-03 08:24:00,SystemResetWarning,0825.1,5.01,000.00,031.1,030.4,000.0,039.4,032.8,015.5,0000.0,0022.15,0005.14,0003.68
2024-06-03 08:25:00,SystemResetWarning,0825.2,5.00,000.00,031.1,030.4,000.0,039.5,032.8,015.5,0000.0,0023.31,0005.10,0003.66
2024-06-03 08:26:00,SystemResetWarning,0825.2,5.00,000.00,031.1,030.4,000.0,039.5,032.8,015.5,0000.0,0022.23,0005.09,0003.65
2024-06-03 08:27:00,SystemResetWarning,0825.2,4.99,000.00,031.1,030.4,000.0,039.5,032.8,015.5,0000.0,0021.18,0005.11,0003.66
2024-06-03 08:28:00,SystemResetWarning,0825.2,5.00,000.00,031.1,030.4,000.0,039.5,032.8,015.5,0000.0,0020.63,0005.06,0003.65
2024-06-03 08:29:00,SystemResetWarning,0825.2,5.00,000.00,031.1,030.4,000.0,039.5,032.8,015.5,0000.0,0020.32,0005.08,0003.66
2024-06-03 08:30:00,SystemResetWarning,0825.2,5.01,000.00,031.1,030.4,000.0,039.5,032.8,015.5,0000.0,0020.99,0005.06,0003.67
2024-06-03 08:31:00,SystemResetWarning,0825.3,5.00,000.00,031.1,030.4,000.0,039.5,032.8,015.5,0000.0,0019.92,0005.13,0003.66
2024-06-03 08:32:00,SystemResetWarning,0825.2,5.01,000.00,031.1,030.4,000.0,039.5,032.8,015.5,0000.0,0019.00,0005.18,0003.68
2024-06-03 08:33:00,SystemResetWarning,0825.2,5.00,000.00,031.1,030.4,000.0,039.5,032.8,015.4,0000.0,0018.17,0005.17,0003.70
2024-06-03 08:34:00,SystemResetWarning,0825.2,5.01,000.00,031.1,030.4,000.0,039.5,032.8,015.5,0000.0,0019.59,0005.18,0003.70
2024-06-03 08:35:00,SystemResetWarning,0825.2,5.00,000.00,031.1,030.4,000.0,039.5,032.9,015.5,0000.0,0020.31,0005.22,0003.71
2024-06-03 08:36:00,SystemResetWarning,0825.2,4.99,000.00,031.1,030.4,000.0,039.5,032.8,015.6,0000.0,0018.82,0005.18,0003.72
2024-06-03 08:37:00,SystemResetWarning,0825.2,4.99,000.00,031.2,030.4,000.0,039.5,032.9,015.7,0000.0,0019.82,0005.17,0003.73
2024-06-03 08:38:00,SystemResetWarning,0825.3,4.99,000.00,031.2,030.4,000.0,039.6,032.9,015.7,0000.0,0019.63,0005.17,0003.74
2024-06-03 08:39:00,SystemResetWarning,0825.2,5.01,000.00,031.2,030.4,000.0,039.6,032.9,015.9,0000.0,0020.26,0005.20,0003.75
2024-06-03 08:40:00,SystemResetWarning,0825.2,5.01,000.00,031.2,030.4,000.0,039.6,032.9,015.7,0000.0,0020.92,0005.17,0003.74
2024-06-03 08:41:00,SystemResetWarning,0825.3,4.99,000.00,031.2,030.4,000.0,039.6,032.9,016.0,0000.0,0020.23,0005.16,0003.76
2024-06-03 08:42:00,SystemResetWarning,0825.2,4.99,000.00,031.2,030.4,000.0,039.6,032.9,016.1,0000.0,0021.18,0005.24,0003.79
2024-06-03 08:43:00,SystemResetWarning,0825.2,5.01,000.00,031.2,030.4,000.0,039.6,032.9,016.3,0000.0,0023.42,0005.38,0003.80
2024-06-03 08:44:00,SystemResetWarning,0825.3,5.01,000.00,031.2,030.5,000.0,039.6,032.9,016.4,0000.0,0025.60,0005.53,0003.84
2024-06-03 08:45:00,SystemResetWarning,0825.2,5.01,000.00,031.2,030.5,000.0,039.6,032.9,016.2,0000.0,0025.57,0005.77,0003.89
2024-06-03 08:46:00,SystemResetWarning,0825.3,5.01,000.00,031.2,030.5,000.0,039.6,032.9,015.3,0000.0,0024.65,0005.84,0003.92
2024-06-03 08:47:00,SystemResetWarning,0825.2,5.00,000.00,031.2,030.5,000.0,039.6,032.9,015.2,0000.0,0026.38,0005.84,0003.91
2024-06-03 08:48:00,SystemResetWarning,0825.2,4.99,000.00,031.2,030.5,000.0,039.6,032.9,015.1,0000.0,0025.89,0005.84,0003.91
2024-06-03 08:49:00,SystemResetWarning,0825.2,5.00,000.00,031.2,030.5,000.0,039.6,032.9,015.3,0000.0,0026.45,0005.85,0003.90
2024-06-03 08:50:00,SystemResetWarning,0825.3,4.99,000.00,031.2,030.5,000.0,039.6,032.9,015.5,0000.0,0026.14,0005.86,0003.90
2024-06-03 08:51:00,SystemResetWarning,0825.3,5.00,000.00,031.2,030.5,000.0,039.6,032.9,016.4,0000.0,0025.69,0005.92,0003.92
2024-06-03 08:52:00,SystemResetWarning,0825.4,5.00,000.00,031.2,030.5,000.0,039.6,032.9,016.6,0000.0,0026.21,0006.10,0003.95
2024-06-03 08:53:00,SystemResetWarning,0825.4,5.00,000.00,031.2,030.5,000.0,039.6,032.9,016.4,0000.0,0028.11,0006.18,0003.96
2024-06-03 08:54:00,SystemResetWarning,0825.4,5.00,000.00,031.2,030.5,000.0,039.6,033.0,016.4,0000.0,0028.04,0006.18,0003.97
2024-06-03 08:55:00,SystemResetWarning,0825.4,5.00,000.00,031.2,030.5,000.0,039.6,033.0,016.3,0000.0,0026.65,0006.10,0003.96
2024-06-03 08:56:00,SystemResetWarning,0825.4,5.00,000.00,031.2,030.5,000.0,039.6,032.9,016.1,0000.0,0025.89,0005.89,0003.94
2024-06-03 08:57:00,SystemResetWarning,0825.3,5.00,000.00,031.2,030.5,000.0,039.7,032.9,015.9,0000.0,0026.28,0005.80,0003.93
2024-06-03 08:58:00,SystemResetWarning,0825.3,5.01,000.00,031.2,030.5,000.0,039.7,032.9,015.9,0000.0,0024.43,0005.84,0003.95
2024-06-03 08:59:00,SystemResetWarning,0825.3,5.00,000.00,031.2,030.5,000.0,039.7,032.9,015.5,0000.0,0023.90,0005.85,0003.97
